Hourly Weather Caxhuacan

Today, 25 June, Friday

Time Temperature Precipitation Wind Pressure Humidity
00:00 +23°C° 1.4 mm 1 mps 698 mmHg 92%
01:00 +22°C° 1.4 mm 1 mps 697 mmHg 92%
02:00 +22°C° 1.4 mm 1 mps 697 mmHg 91%
03:00 +22°C° 0.1 mm 1 mps 697 mmHg 90%
04:00 +22°C° 0.1 mm 1 mps 697 mmHg 89%
05:00 +21°C° 0.1 mm 2 mps 697 mmHg 88%
06:00 +23°C° 0 mm 1 mps 698 mmHg 84%
07:00 +25°C° 0 mm 1 mps 698 mmHg 80%
08:00 +26°C° 0 mm 1 mps 698 mmHg 76%
09:00 +27°C° 0.4 mm 2 mps 698 mmHg 75%
10:00 +28°C° 0.4 mm 2 mps 698 mmHg 75%
11:00 +28°C° 0.4 mm 2 mps 698 mmHg 74%
12:00 +28°C° 1.9 mm 2 mps 697 mmHg 76%
13:00 +28°C° 1.9 mm 2 mps 697 mmHg 77%
14:00 +27°C° 1.9 mm 1 mps 696 mmHg 79%
15:00 +27°C° 1.2 mm 1 mps 696 mmHg 82%
16:00 +26°C° 1.2 mm 1 mps 696 mmHg 86%
17:00 +25°C° 1.2 mm 1 mps 696 mmHg 89%
18:00 +25°C° 0.2 mm 1 mps 696 mmHg 91%
19:00 +24°C° 0.2 mm 1 mps 697 mmHg 92%
20:00 +23°C° 0.2 mm 1 mps 697 mmHg 94%
21:00 +23°C° 0 mm 1 mps 697 mmHg 93%
22:00 +23°C° 0 mm 1 mps 697 mmHg 92%
23:00 +22°C° 0 mm 1 mps 697 mmHg 91%

Tomorrow, 26 June, Saturday

Time Temperature Precipitation Wind Pressure Humidity
00:00 +22°C° 0 mm 1 mps 696 mmHg 90%
01:00 +22°C° 0 mm 1 mps 696 mmHg 89%
02:00 +21°C° 0 mm 2 mps 695 mmHg 87%
03:00 +21°C° 0 mm 1 mps 696 mmHg 87%
04:00 +21°C° 0 mm 1 mps 696 mmHg 87%
05:00 +21°C° 0 mm 1 mps 696 mmHg 86%
06:00 +23°C° 0.1 mm 1 mps 697 mmHg 82%
07:00 +24°C° 0.1 mm 1 mps 697 mmHg 78%
08:00 +24°C° 0.1 mm 0 mps 697 mmHg 74%
09:00 +27°C° 0.1 mm 1 mps 697 mmHg 72%
10:00 +27°C° 0.1 mm 1 mps 697 mmHg 71%
11:00 +28°C° 0.1 mm 2 mps 697 mmHg 69%
12:00 +28°C° 0.6 mm 2 mps 696 mmHg 72%
13:00 +28°C° 0.6 mm 1 mps 696 mmHg 74%
14:00 +27°C° 0.6 mm 1 mps 695 mmHg 77%
15:00 +27°C° 0.9 mm 1 mps 695 mmHg 80%
16:00 +26°C° 0.9 mm 1 mps 695 mmHg 83%
17:00 +26°C° 0.9 mm 1 mps 695 mmHg 86%
18:00 +25°C° 1 mm 1 mps 695 mmHg 89%
19:00 +24°C° 1 mm 1 mps 695 mmHg 92%
20:00 +23°C° 1 mm 1 mps 696 mmHg 95%
21:00 +23°C° 1 mm 1 mps 696 mmHg 95%
22:00 +23°C° 1 mm 1 mps 696 mmHg 94%
23:00 +23°C° 1 mm 1 mps 696 mmHg 94%

Day after tomorrow, 27 June, Sunday

Time Temperature Precipitation Wind Pressure Humidity
00:00 +22°C° 0.9 mm 1 mps 695 mmHg 93%
01:00 +22°C° 0.9 mm 1 mps 695 mmHg 93%
02:00 +22°C° 0.9 mm 1 mps 694 mmHg 92%
03:00 +22°C° 0.6 mm 1 mps 694 mmHg 92%
04:00 +22°C° 0.6 mm 1 mps 694 mmHg 92%
05:00 +22°C° 0.6 mm 1 mps 694 mmHg 91%
06:00 +23°C° 0.5 mm 1 mps 695 mmHg 90%
07:00 +24°C° 0.5 mm 1 mps 695 mmHg 88%
08:00 +24°C° 0.5 mm 1 mps 696 mmHg 86%
09:00 +25°C° 0.1 mm 1 mps 696 mmHg 82%
10:00 +26°C° 0.1 mm 1 mps 696 mmHg 78%
11:00 +27°C° 0.1 mm 1 mps 695 mmHg 73%
12:00 +27°C° 0.3 mm 1 mps 695 mmHg 74%
13:00 +28°C° 0.3 mm 1 mps 695 mmHg 74%
14:00 +28°C° 0.3 mm 2 mps 694 mmHg 74%
15:00 +27°C° 1 mm 1 mps 694 mmHg 80%
16:00 +26°C° 1 mm 1 mps 694 mmHg 85%
17:00 +23°C° 1 mm 0 mps 694 mmHg 90%
18:00 +25°C° 1.9 mm 1 mps 694 mmHg 91%
19:00 +24°C° 1.9 mm 1 mps 694 mmHg 92%
20:00 +23°C° 1.9 mm 1 mps 695 mmHg 93%
21:00 +23°C° 0.5 mm 1 mps 695 mmHg 92%
22:00 +23°C° 0.5 mm 1 mps 695 mmHg 91%
23:00 +23°C° 0.5 mm 1 mps 695 mmHg 90%

28 June, Monday

Time Temperature Precipitation Wind Pressure Humidity
00:00 +23°C° 0.4 mm 1 mps 695 mmHg 90%
01:00 +23°C° 0.4 mm 1 mps 694 mmHg 90%
02:00 +23°C° 0.4 mm 1 mps 694 mmHg 90%
03:00 +22°C° 0.2 mm 1 mps 694 mmHg 90%
04:00 +22°C° 0.2 mm 1 mps 694 mmHg 89%
05:00 +22°C° 0.2 mm 1 mps 695 mmHg 89%
06:00 +23°C° 0.1 mm 1 mps 695 mmHg 88%
07:00 +22°C° 0.1 mm 0 mps 695 mmHg 86%
08:00 +22°C° 0.1 mm 0 mps 696 mmHg 84%
09:00 +23°C° 0.3 mm 0 mps 696 mmHg 82%
10:00 +25°C° 0.3 mm 1 mps 696 mmHg 81%
11:00 +26°C° 0.3 mm 1 mps 696 mmHg 79%
12:00 +26°C° 0.5 mm 1 mps 695 mmHg 81%
13:00 +23°C° 0.5 mm 0 mps 695 mmHg 83%
14:00 +23°C° 0.5 mm 0 mps 695 mmHg 84%
15:00 +22°C° 0.8 mm 0 mps 695 mmHg 87%
16:00 +22°C° 0.8 mm 0 mps 695 mmHg 90%
17:00 +21°C° 0.8 mm 0 mps 695 mmHg 93%
18:00 +21°C° 0.1 mm 0 mps 695 mmHg 92%
19:00 +21°C° 0.1 mm 0 mps 696 mmHg 92%
20:00 +21°C° 0.1 mm 0 mps 696 mmHg 91%
21:00 +20°C° 0 mm 0 mps 696 mmHg 92%
22:00 +20°C° 0 mm 0 mps 696 mmHg 92%
23:00 +20°C° 0 mm 0 mps 696 mmHg 92%

29 June, Tuesday

Time Temperature Precipitation Wind Pressure Humidity
00:00 +20°C° 0 mm 0 mps 696 mmHg 92%
01:00 +20°C° 0 mm 0 mps 696 mmHg 92%
02:00 +20°C° 0 mm 0 mps 695 mmHg 92%
03:00 +20°C° 0 mm 0 mps 695 mmHg 92%
04:00 +20°C° 0 mm 0 mps 696 mmHg 92%
05:00 +22°C° 0 mm 1 mps 696 mmHg 92%
06:00 +23°C° 0 mm 1 mps 696 mmHg 89%
07:00 +23°C° 0 mm 1 mps 696 mmHg 87%
08:00 +24°C° 0 mm 1 mps 697 mmHg 84%
09:00 +25°C° 0.3 mm 1 mps 697 mmHg 82%
10:00 +26°C° 0.3 mm 2 mps 697 mmHg 80%
11:00 +27°C° 0.3 mm 2 mps 697 mmHg 78%
12:00 +26°C° 1.2 mm 2 mps 696 mmHg 81%
13:00 +26°C° 1.2 mm 2 mps 696 mmHg 84%
14:00 +26°C° 1.2 mm 2 mps 696 mmHg 87%
15:00 +25°C° 1.8 mm 1 mps 696 mmHg 90%
16:00 +24°C° 1.8 mm 1 mps 696 mmHg 93%
17:00 +23°C° 1.8 mm 1 mps 696 mmHg 96%
18:00 +23°C° 6.7 mm 1 mps 696 mmHg 97%
19:00 +23°C° 6.7 mm 1 mps 696 mmHg 97%
20:00 +22°C° 6.7 mm 1 mps 697 mmHg 97%
21:00 +22°C° 4.3 mm 1 mps 697 mmHg 97%
22:00 +22°C° 4.3 mm 1 mps 697 mmHg 97%
23:00 +20°C° 4.3 mm 0 mps 697 mmHg 97%

30 June, Wednesday

Time Temperature Precipitation Wind Pressure Humidity
00:00 +20°C° 0.2 mm 0 mps 697 mmHg 97%
01:00 +20°C° 0.2 mm 0 mps 696 mmHg 96%
02:00 +20°C° 0.2 mm 0 mps 696 mmHg 96%
03:00 +20°C° 0 mm 0 mps 696 mmHg 95%
04:00 +20°C° 0 mm 0 mps 696 mmHg 95%
05:00 +20°C° 0 mm 0 mps 696 mmHg 94%
06:00 +21°C° 0 mm 0 mps 697 mmHg 91%
07:00 +22°C° 0 mm 0 mps 697 mmHg 87%
08:00 +23°C° 0 mm 0 mps 697 mmHg 84%
09:00 +25°C° 0.4 mm 1 mps 697 mmHg 84%
10:00 +25°C° 0.4 mm 1 mps 697 mmHg 84%
11:00 +26°C° 0.4 mm 2 mps 697 mmHg 85%
12:00 +26°C° 0.8 mm 1 mps 697 mmHg 86%
13:00 +26°C° 0.8 mm 1 mps 696 mmHg 86%
14:00 +26°C° 0.8 mm 1 mps 696 mmHg 87%
15:00 +25°C° 1 mm 1 mps 696 mmHg 90%
16:00 +25°C° 1 mm 1 mps 696 mmHg 92%
17:00 +24°C° 1 mm 1 mps 696 mmHg 94%
18:00 +22°C° 0.9 mm 0 mps 696 mmHg 95%
19:00 +21°C° 0.9 mm 0 mps 696 mmHg 95%
20:00 +21°C° 0.9 mm 0 mps 697 mmHg 95%
21:00 +21°C° 1.2 mm 0 mps 697 mmHg 95%
22:00 +21°C° 1.2 mm 0 mps 697 mmHg 95%
23:00 +21°C° 1.2 mm 0 mps 697 mmHg 95%
Show more

We Need Your Consent

Meteoprog and our Service Providers may store and access personal data such as cookies, device identifiers or other similar technologies on your device and process such data to personalise content and ads, as well as provide social media features and to analyse the traffic.

  • Store and/or access information on your device

    Cookies, device identifiers or other information can be stored or accessed on your device for the purposes indicated above.

  • Personalised ads and content, ad and content measurement, audience insights, and products development

    Ads and content can be personalised based on a profile. More data can be added to better personalise ads and content. Ad and content performance can be measured. Insights about the audience who saw the ads and content can be derived. Such data can be used to develop or improve user’s experience, systems and software.

By clicking ‘I Agree’ you will allow the use of indicated cookies, device identifiers, web beacons or other similar technologies. Your settings can be changed in the browser on your device.

For certain purposes, legitimate interests may be relied on, rather than consent. You can read more about this in our Privacy and Cookie Policy.